TimeEET,TemperatureF,Dew PointF,Humidity,Sea Level PressureIn,VisibilityMPH,Wind Direction,Wind SpeedMPH,Gust SpeedMPH,PrecipitationIn,Events,Conditions,WindDirDegrees,DateUTC
12:20 AM,60.8,55.4,82,29.98,-9999.0,NE,6.9,-,N/A,,Clear,40,2012-11-05 22:20:00
12:50 AM,60.8,53.6,77,29.98,-9999.0,NE,5.8,-,N/A,,Clear,40,2012-11-05 22:50:00
1:20 AM,60.8,55.4,82,29.98,-9999.0,Variable,1.2,-,N/A,,Clear,0,2012-11-05 23:20:00
1:50 AM,59.0,53.6,82,29.98,-9999.0,WNW,3.5,-,N/A,,Clear,300,2012-11-05 23:50:00
2:20 AM,59.0,51.8,77,29.98,-9999.0,NNW,2.3,-,N/A,,Clear,340,2012-11-06 00:20:00
2:50 AM,59.0,53.6,82,29.98,-9999.0,NNE,2.3,-,N/A,,Clear,20,2012-11-06 00:50:00
3:20 AM,60.8,53.6,77,29.98,-9999.0,North,2.3,-,N/A,,Clear,10,2012-11-06 01:20:00
3:50 AM,59.0,53.6,82,29.98,-9999.0,Variable,2.3,-,N/A,,Clear,0,2012-11-06 01:50:00
4:20 AM,60.8,55.4,82,29.98,-9999.0,NNE,3.5,-,N/A,,Clear,20,2012-11-06 02:20:00
4:50 AM,60.8,53.6,77,29.98,-9999.0,North,3.5,-,N/A,,Clear,350,2012-11-06 02:50:00
5:20 AM,62.6,51.8,68,29.98,-9999.0,North,3.5,-,N/A,,Clear,350,2012-11-06 03:20:00
5:50 AM,60.8,50.0,68,29.98,-9999.0,North,2.3,-,N/A,,Clear,350,2012-11-06 03:50:00
6:20 AM,59.0,51.8,77,30.01,-9999.0,Calm,Calm,-,N/A,,Clear,0,2012-11-06 04:20:00
6:50 AM,59.0,53.6,82,30.01,-9999.0,North,2.3,-,N/A,,Clear,360,2012-11-06 04:50:00
7:20 AM,62.6,55.4,77,30.01,-9999.0,Variable,2.3,-,N/A,,Clear,0,2012-11-06 05:20:00
7:50 AM,66.2,57.2,73,30.01,-9999.0,ENE,3.5,-,N/A,,Clear,60,2012-11-06 05:50:00
8:20 AM,69.8,53.6,56,30.01,-9999.0,ENE,4.6,-,N/A,,Clear,60,2012-11-06 06:20:00
8:50 AM,71.6,53.6,53,30.01,-9999.0,NNE,3.5,-,N/A,,Clear,30,2012-11-06 06:50:00
9:20 AM,73.4,51.8,47,30.01,-9999.0,North,3.5,-,N/A,,Clear,350,2012-11-06 07:20:00
9:50 AM,75.2,51.8,44,30.01,-9999.0,NE,4.6,-,N/A,,Clear,50,2012-11-06 07:50:00
10:20 AM,77.0,51.8,41,30.01,-9999.0,East,4.6,-,N/A,,Clear,80,2012-11-06 08:20:00
10:50 AM,78.8,51.8,39,30.01,-9999.0,Variable,3.5,-,N/A,,Clear,0,2012-11-06 08:50:00
11:20 AM,78.8,50.0,36,29.98,-9999.0,SE,3.5,-,N/A,,Clear,130,2012-11-06 09:20:00
11:50 AM,80.6,51.8,37,29.98,-9999.0,SSE,3.5,-,N/A,,Clear,150,2012-11-06 09:50:00
12:20 PM,82.4,50.0,32,29.98,-9999.0,Variable,3.5,-,N/A,,Clear,0,2012-11-06 10:20:00
12:50 PM,80.6,50.0,34,29.98,-9999.0,SSE,4.6,-,N/A,,Clear,160,2012-11-06 10:50:00
1:20 PM,82.4,51.8,35,29.95,-9999.0,South,4.6,-,N/A,,Clear,190,2012-11-06 11:20:00
1:50 PM,82.4,51.8,35,29.95,-9999.0,South,4.6,-,N/A,,Clear,190,2012-11-06 11:50:00
2:20 PM,80.6,51.8,37,29.95,-9999.0,South,6.9,-,N/A,,Clear,180,2012-11-06 12:20:00
2:50 PM,80.6,51.8,37,29.95,-9999.0,SSW,6.9,-,N/A,,Clear,210,2012-11-06 12:50:00
3:20 PM,80.6,55.4,42,29.95,-9999.0,SSW,6.9,-,N/A,,Clear,210,2012-11-06 13:20:00
3:50 PM,77.0,57.2,50,29.95,-9999.0,SSW,8.1,-,N/A,,Clear,210,2012-11-06 13:50:00
4:20 PM,75.2,57.2,53,29.98,-9999.0,SSW,6.9,-,N/A,,Clear,210,2012-11-06 14:20:00
4:50 PM,71.6,57.2,60,29.98,-9999.0,SSW,6.9,-,N/A,,Clear,210,2012-11-06 14:50:00
5:20 PM,69.8,57.2,64,29.98,-9999.0,SSW,6.9,-,N/A,,Clear,210,2012-11-06 15:20:00
5:50 PM,69.8,59.0,68,30.01,-9999.0,SW,5.8,-,N/A,,Clear,230,2012-11-06 15:50:00
6:20 PM,69.8,59.0,68,30.01,-9999.0,WSW,4.6,-,N/A,,Clear,250,2012-11-06 16:20:00
6:50 PM,68.0,59.0,73,30.01,-9999.0,West,3.5,-,N/A,,Clear,270,2012-11-06 16:50:00
7:20 PM,69.8,60.8,73,30.01,-9999.0,WNW,3.5,-,N/A,,Clear,300,2012-11-06 17:20:00
7:50 PM,68.0,60.8,78,30.04,-9999.0,Variable,3.5,-,N/A,,Clear,0,2012-11-06 17:50:00
8:20 PM,68.0,60.8,78,30.04,-9999.0,NE,3.5,-,N/A,,Clear,40,2012-11-06 18:20:00
8:50 PM,68.0,60.8,78,30.04,-9999.0,NE,3.5,-,N/A,,Clear,50,2012-11-06 18:50:00
9:20 PM,64.4,59.0,83,30.04,-9999.0,SE,2.3,-,N/A,,Clear,130,2012-11-06 19:20:00
9:50 PM,62.6,59.0,88,30.04,-9999.0,SE,2.3,-,N/A,,Clear,130,2012-11-06 19:50:00
10:20 PM,62.6,59.0,88,30.04,-9999.0,Variable,2.3,-,N/A,,Clear,0,2012-11-06 20:20:00
10:50 PM,62.6,59.0,88,30.04,-9999.0,Calm,Calm,-,N/A,,Clear,0,2012-11-06 20:50:00
11:20 PM,60.8,57.2,88,30.04,-9999.0,Calm,Calm,-,N/A,,Clear,0,2012-11-06 21:20:00
11:50 PM,60.8,57.2,88,30.04,-9999.0,NE,2.3,-,N/A,,Clear,50,2012-11-06 21:50:00